Location: Wiesbaden
(50.0830°N, 8.2500°E)
Time: 19:59:55
(UTC+02:00)

ISS - Pass Details

Date: 15 July 2019
Orbit: 409 x 418 km, 51.6° (Epoch: 20 July)

Event Time Altitude Azimuth Distance (km) Brightness Sun altitude
Exits shadow 23:58:16 38° 164° (SSE) 652 -3.3 -15.4°
Maximum altitude 23:58:32 39° 150° (SSE) 641 -3.4 -15.5°
Drops below altitude 10° 00:01:40 10° 80° (E) 1,484 -1.1 -15.7°
Sets 00:03:50 0° 73° (ENE) 2,347 0.0 -15.8°
